Home > Weather > Bath > Past weeks

Flag for United Kingdom Past Weather in Bath, England, United Kingdom — Yesterday and Last 2 Weeks

Now
64 °F

Passing clouds.


Feels Like: 64 °F
Forecast: 49 / 68 °F
Wind: 13 mph from North

Location: Bristol / Lulsgate

Current Time: May 29, 2016 at 2:37:57 PM

Latest Report: May 29, 2016 at 2:20 PM


Visibility: N/A

Pressure: 29.95 "Hg

Humidity: 60%

Dew Point: 50 °F

Location of BathLocation

Past Weather in Bath — Graph

°F

Bath Temperature Yesterday

Maximum temperature yesterday: 66 °F (at 2:20 PM)
Minimum temperature yesterday: 50 °F (at 3:50 AM)
Average temperature yesterday: 58 °F

High & Low Weather Summary for the Past Weeks

 TemperatureHumidityPressure
High66 °F (May 27, 3:20 PM)100% (May 15, 12:20 AM)30.21 "Hg (May 15, 12:20 AM)
Low41 °F (May 25, 4:20 AM)44% (May 14, 4:50 PM)29.59 "Hg (May 18, 8:50 AM)
Average53 °F81%29.98 "Hg
* Reported May 14 1:20 PM — May 29 1:20 PM, Bath, Weather by CustomWeather, © 2016

Note: Actual official high and low records may vary slightly from our data, if they occured in-between our weather recording intervals... More about our weather records

Advertising

Bath Weather History for the Previous 24 Hours

Scroll right to see more
 ConditionsComfort  
Time TempWeatherWind HumidityBarometerVisibility
1:20 PM
Sun, May 29
64 °FMild.16 mph60%29.95 "HgN/A
12:50 PM63 °FPassing clouds.15 mph64%29.95 "HgN/A
12:20 PM63 °FPassing clouds.16 mph68%29.95 "HgN/A
11:50 AM61 °FCool.15 mph68%29.95 "HgN/A
11:20 AM61 °FCool.17 mph68%29.95 "HgN/A
10:50 AM59 °FCool.15 mph72%29.95 "HgN/A
10:20 AM57 °FCool.14 mph72%29.95 "HgN/A
9:50 AM57 °FCool.15 mph72%29.95 "HgN/A
9:20 AM55 °FCool.13 mph72%29.95 "HgN/A
8:50 AM54 °FPassing clouds.12 mph77%29.95 "HgN/A
8:20 AM52 °FPassing clouds.14 mph82%29.95 "HgN/A
7:50 AM52 °FPassing clouds.16 mph82%29.95 "Hg6 mi
7:20 AM50 °FPassing clouds.10 mph88%29.92 "Hg6 mi
6:50 AM50 °FCool.10 mph88%29.92 "HgN/A
6:20 AM50 °FCool.12 mph88%29.92 "HgN/A
5:50 AM48 °FCool.12 mph94%29.92 "HgN/A
5:20 AM48 °FCool.8 mph94%29.92 "Hg5 mi
4:50 AM48 °FCool.8 mph94%29.92 "Hg5 mi
4:20 AM50 °FCool.9 mph88%29.92 "Hg6 mi
3:50 AM50 °FCool.12 mph94%29.92 "HgN/A
3:20 AM50 °FCool.9 mph94%29.92 "HgN/A
2:50 AM52 °FCool.10 mph88%29.92 "HgN/A
2:20 AM52 °FCool.9 mph88%29.95 "HgN/A
1:50 AM50 °FCool.8 mph94%29.95 "HgN/A
1:20 AM54 °FCool.9 mph82%29.95 "HgN/A
12:50 AM54 °FCool.10 mph88%29.92 "HgN/A
12:20 AM55 °FCool.9 mph82%29.92 "HgN/A
11:50 PM
Sat, May 28
55 °FCool.8 mph82%29.95 "HgN/A
11:20 PM57 °FCool.7 mph77%29.95 "HgN/A
10:50 PM59 °FCool.7 mph77%29.95 "HgN/A
10:20 PM59 °FCool.9 mph77%29.95 "HgN/A
9:50 PM59 °FCool.8 mph77%29.95 "HgN/A
9:20 PM61 °FCool.9 mph72%29.95 "HgN/A
8:50 PM61 °FCool.9 mph72%29.92 "HgN/A
8:20 PM63 °FThundershowers. Cloudy.12 mph68%29.92 "HgN/A
7:50 PM64 °FPassing clouds.13 mph64%29.92 "HgN/A
7:20 PM64 °FMild.10 mph64%29.92 "HgN/A
6:50 PM64 °FPassing clouds.9 mph68%29.92 "HgN/A
6:20 PM64 °FPassing clouds.10 mph64%29.92 "HgN/A
5:50 PM66 °FScattered clouds.13 mph64%29.92 "HgN/A
5:20 PM66 °FPartly sunny.13 mph64%29.92 "HgN/A
4:50 PM66 °FScattered clouds.13 mph64%29.92 "HgN/A
4:20 PM66 °FPartly sunny.13 mph64%29.92 "HgN/A
3:50 PM64 °FPartly sunny.13 mph68%29.95 "HgN/A
3:20 PM66 °FPartly sunny.12 mph68%29.95 "HgN/A
2:50 PM66 °FPartly sunny.10 mph68%29.95 "HgN/A
2:20 PM66 °FScattered clouds.9 mph68%29.95 "HgN/A
Weather by CustomWeather, © 2016

See weather overviewHow to use our weather pages